Weather History for Sumter, SC

Change the Weather History Date:

Monday, April 1, 2013

  Actual Average Record
Temperature  
Mean Temperature 65 °F -  
Max Temperature 73 °F 73 °F 77 °F (2012)
Min Temperature 57 °F 47 °F 46 °F (2011)
Growing Degree Days 15 (Base 50)    
Moisture  
Dew Point 55 °F    
Average Humidity 77    
Maximum Humidity 100    
Minimum Humidity 43    
Precipitation  
Precipitation 0.28 in - - ()
Sea Level Pressure  
Sea Level Pressure 29.90 in    
Wind  
Wind Speed 6 mph (West)    
Max Wind Speed 17 mph    
Max Gust Speed 23 mph    
Visibility 9 miles    
Events Rain , Thunderstorm    
Averages and records for this station are not official NWS values.
T = Trace of Precipitation, MM = Missing Value Source: NWS Daily Summary

Daily Weather History Graph

Daily Weather History Graph

Search for Another Location

Airport:

Trip Planner

Search our weather history database for the weather conditions in past years. The results will help you decide how hot, cold, wet, or windy it might be!

Date:

Astronomy

Apr. 01, 2013 Rise Set
Actual Time 7:08 AM EDT 7:42 PM EDT
Civil Twilight 6:43 AM EDT 8:07 PM EDT
Nautical Twilight 6:13 AM EDT 8:37 PM EDT
Astronomical Twilight 5:43 AM EDT 9:07 PM EDT
Moon 12:37 AM EDT (4/1) 11:05 AM EDT (4/1)
Length of Visible Light 13h 24m
Length of Day
12h 33m
Waning Gibbous, 67% of the Moon is Illuminated
Apr 1
Waning Gibbous
Apr 3
Last Quarter
Apr 10
New
Apr 18
First Quarter
Apr 25
Full

Hourly Weather History & Observations

Time (EDT) Temp. Dew Point Humidity Pressure Visibility Wind Dir Wind Speed Gust Speed Precip Events Conditions
12:15 AM 57.2 °F 57.2 °F 100% 29.91 in 5.0 mi Calm Calm - N/A   Clear
12:35 AM 59.0 °F 59.0 °F 100% 29.90 in 5.0 mi SSW 3.5 mph - N/A   Clear
12:55 AM 59.0 °F 59.0 °F 100% 29.90 in 10.0 mi SW 5.8 mph - N/A   Clear
1:15 AM 60.8 °F 60.8 °F 100% 29.89 in 10.0 mi SW 6.9 mph - N/A Thunderstorm Scattered Clouds
1:35 AM 60.8 °F 60.8 °F 100% 29.90 in 10.0 mi SW 9.2 mph - N/A   Mostly Cloudy
1:55 AM 62.6 °F 62.6 °F 100% 29.90 in 7.0 mi SW 10.4 mph 17.3 mph N/A Rain Light Rain
2:15 AM 62.6 °F 62.6 °F 100% 29.89 in 7.0 mi SW 17.3 mph 23.0 mph 0.01 in Rain Light Rain
2:35 AM 60.8 °F 60.8 °F 100% 29.90 in 6.0 mi SW 12.7 mph 18.4 mph 0.04 in Rain Light Rain
2:55 AM 60.8 °F 60.8 °F 100% 29.90 in 4.0 mi WSW 10.4 mph - 0.10 in Rain Rain
3:15 AM 60.8 °F 60.8 °F 100% 29.90 in 7.0 mi West 8.1 mph - 0.01 in Rain Light Rain
3:35 AM 60.8 °F 60.8 °F 100% 29.89 in 5.0 mi West 5.8 mph - 0.03 in Rain Light Rain
3:55 AM 60.8 °F 60.8 °F 100% 29.88 in 9.0 mi SW 5.8 mph - 0.04 in Rain Light Rain
4:15 AM 60.8 °F 60.8 °F 100% 29.87 in 9.0 mi WNW 4.6 mph - N/A Rain Light Rain
4:35 AM 60.8 °F 60.8 °F 100% 29.88 in 10.0 mi SW 6.9 mph - N/A   Mostly Cloudy
4:55 AM 59.0 °F 59.0 °F 100% 29.88 in 10.0 mi West 3.5 mph - N/A   Scattered Clouds
5:15 AM 59.0 °F 59.0 °F 100% 29.89 in 7.0 mi West 5.8 mph - N/A Rain Light Rain
5:35 AM 60.8 °F 60.8 °F 100% 29.88 in 7.0 mi SW 10.4 mph - 0.01 in Rain Light Rain
5:55 AM 59.0 °F 59.0 °F 100% 29.89 in 10.0 mi WSW 8.1 mph - 0.01 in   Partly Cloudy
6:15 AM 59.0 °F 59.0 °F 100% 29.90 in 5.0 mi West 6.9 mph - 0.01 in Rain Light Rain
6:35 AM 59.0 °F 59.0 °F 100% 29.88 in 6.0 mi WSW 9.2 mph - 0.05 in Rain Rain
6:55 AM 59.0 °F 59.0 °F 100% 29.91 in 6.0 mi WSW 9.2 mph - 0.06 in Rain Light Rain
7:15 AM 59.0 °F 59.0 °F 100% 29.89 in 4.0 mi West 4.6 mph - 0.01 in Rain Rain
7:35 AM 59.0 °F 59.0 °F 100% 29.88 in 5.0 mi Calm Calm - 0.05 in Rain Light Rain
7:55 AM 59.0 °F 59.0 °F 100% 29.88 in 8.0 mi Calm Calm - 0.06 in   Scattered Clouds
8:15 AM 59.0 °F 59.0 °F 100% 29.90 in 5.0 mi West 3.5 mph - 0.01 in Rain Light Rain
8:35 AM 59.0 °F 59.0 °F 100% 29.92 in 9.0 mi SSW 8.1 mph - 0.01 in   Clear
8:55 AM 59.0 °F 59.0 °F 100% 29.92 in 10.0 mi WSW 9.2 mph - 0.01 in   Scattered Clouds
9:15 AM 60.8 °F 60.8 °F 100% 29.93 in 10.0 mi West 3.5 mph - N/A   Mostly Cloudy
9:35 AM 60.8 °F 60.8 °F 100% 29.93 in 10.0 mi West 3.5 mph - N/A   Mostly Cloudy
9:55 AM 62.6 °F 62.6 °F 100% 29.93 in 10.0 mi WSW 5.8 mph - N/A   Mostly Cloudy
10:15 AM 62.6 °F 62.6 °F 100% 29.93 in 10.0 mi West 6.9 mph - N/A   Mostly Cloudy
10:35 AM 62.6 °F 62.6 °F 100% 29.93 in 9.0 mi WNW 4.6 mph - N/A   Unknown
10:55 AM 62.6 °F 62.6 °F 100% 29.92 in 10.0 mi WSW 4.6 mph - N/A   Overcast
11:15 AM 62.6 °F 62.6 °F 100% 29.93 in 4.0 mi NW 9.2 mph - N/A Rain Light Rain
11:35 AM 62.6 °F 62.6 °F 100% 29.94 in 10.0 mi WNW 9.2 mph - N/A   Overcast
11:55 AM 64.4 °F 62.6 °F 94% 29.94 in 10.0 mi WNW 6.9 mph - N/A   Mostly Cloudy
12:15 PM 64.4 °F 59.0 °F 83% 29.93 in 10.0 mi WNW 8.1 mph - N/A   Overcast
12:35 PM 68.0 °F 59.0 °F 73% 29.92 in 10.0 mi Calm Calm - N/A   Scattered Clouds
12:55 PM 68.0 °F 57.2 °F 68% 29.91 in 10.0 mi SW 4.6 mph - N/A   Partly Cloudy
1:15 PM 69.8 °F 57.2 °F 64% 29.91 in 10.0 mi SSW 5.8 mph - N/A   Mostly Cloudy
1:35 PM 68.0 °F 57.2 °F 68% 29.90 in 10.0 mi WSW 3.5 mph - N/A   Overcast
1:55 PM 71.6 °F 57.2 °F 60% 29.90 in 10.0 mi SW 5.8 mph - N/A   Mostly Cloudy
2:15 PM 71.6 °F 57.2 °F 60% 29.89 in 10.0 mi NW 6.9 mph - N/A   Mostly Cloudy
2:35 PM 71.6 °F 55.4 °F 57% 29.88 in 10.0 mi WSW 6.9 mph 16.1 mph N/A   Mostly Cloudy
2:55 PM 71.6 °F 55.4 °F 57% 29.88 in 10.0 mi West 8.1 mph - N/A   Mostly Cloudy
3:15 PM 71.6 °F 55.4 °F 57% 29.88 in 10.0 mi West 8.1 mph - N/A   Mostly Cloudy
3:35 PM 73.4 °F 53.6 °F 50% 29.87 in 10.0 mi West 12.7 mph 21.9 mph N/A   Mostly Cloudy
3:55 PM 73.4 °F 50.0 °F 44% 29.87 in 10.0 mi WSW 8.1 mph 20.7 mph N/A   Partly Cloudy
4:15 PM 73.4 °F 50.0 °F 44% 29.87 in 10.0 mi West 10.4 mph 17.3 mph N/A   Partly Cloudy
4:35 PM 73.4 °F 51.8 °F 47% 29.87 in 10.0 mi West 6.9 mph - N/A   Scattered Clouds
4:55 PM 73.4 °F 50.0 °F 44% 29.87 in 10.0 mi West 6.9 mph - N/A   Partly Cloudy
5:15 PM 73.4 °F 50.0 °F 44% 29.87 in 10.0 mi West 8.1 mph - N/A   Clear
5:35 PM 73.4 °F 50.0 °F 44% 29.87 in 10.0 mi WNW 9.2 mph 16.1 mph N/A   Scattered Clouds
5:55 PM 73.4 °F 50.0 °F 44% 29.86 in 10.0 mi West 9.2 mph - N/A   Scattered Clouds
6:15 PM 73.4 °F 50.0 °F 44% 29.87 in 10.0 mi WNW 6.9 mph - N/A   Clear
6:35 PM 73.4 °F 50.0 °F 44% 29.87 in 10.0 mi WNW 5.8 mph - N/A   Partly Cloudy
6:55 PM 71.6 °F 48.2 °F 43% 29.88 in 10.0 mi WNW 6.9 mph - N/A   Partly Cloudy
7:15 PM 69.8 °F 50.0 °F 49% 29.88 in 10.0 mi West 3.5 mph - N/A   Mostly Cloudy
7:35 PM 69.8 °F 48.2 °F 46% 29.88 in 10.0 mi West 3.5 mph - N/A   Mostly Cloudy
7:55 PM 68.0 °F 48.2 °F 49% 29.89 in 10.0 mi Calm Calm - N/A   Partly Cloudy
8:15 PM 64.4 °F 51.8 °F 64% 29.89 in 10.0 mi Calm Calm - N/A   Clear
8:35 PM 62.6 °F 51.8 °F 68% 29.89 in 10.0 mi Calm Calm - N/A   Clear
8:55 PM 59.0 °F 51.8 °F 77% 29.90 in 10.0 mi WSW 4.6 mph - N/A   Clear
9:15 PM 59.0 °F 50.0 °F 72% 29.90 in 10.0 mi WSW 3.5 mph - N/A   Clear
9:35 PM 57.2 °F 50.0 °F 77% 29.91 in 10.0 mi Calm Calm - N/A   Clear
9:55 PM 59.0 °F 46.4 °F 63% 29.92 in 10.0 mi West 4.6 mph - N/A   Clear
10:15 PM 62.6 °F 41.0 °F 45% 29.93 in 10.0 mi West 8.1 mph - N/A   Clear
10:35 PM 62.6 °F 41.0 °F 45% 29.94 in 10.0 mi West 8.1 mph - N/A   Clear
10:55 PM 62.6 °F 41.0 °F 45% 29.95 in 10.0 mi WNW 8.1 mph - N/A   Clear
11:15 PM 62.6 °F 41.0 °F 45% 29.95 in 10.0 mi NW 5.8 mph - N/A   Clear
11:35 PM 60.8 °F 41.0 °F 48% 29.96 in 10.0 mi WNW 5.8 mph - N/A   Clear
11:55 PM 59.0 °F 41.0 °F 51% 29.97 in 10.0 mi NW 4.6 mph - N/A   Clear